SWA3555 KSAN-KLAX

Flight info

Callsign SWA3555
Flight time 0h 25m
Altitude 10000
Route CWARD2 SLI
Aircraft B38M/M-SDE1FGHILORVWXY/HB1

Departure

Time 2026-04-25 23:51
Airport San Diego International Airport (KSAN)

Arrival

Time 2026-04-26 00:16
Airport Los Angeles International Airport (KLAX)
Time Latitude Longitude Altitude Speed Heading
2026-04-25 23:50 32.92226 -117.50883 9964 ft 280 kts 301°
2026-04-25 23:51 32.93418 -117.52738 9962 ft 280 kts 301°
2026-04-25 23:51 32.94599 -117.54577 9965 ft 279 kts 301°
2026-04-25 23:51 32.95779 -117.56416 9963 ft 279 kts 301°
2026-04-25 23:51 32.96944 -117.58233 9966 ft 280 kts 301°
2026-04-25 23:52 32.98124 -117.60073 9952 ft 279 kts 301°
2026-04-25 23:52 32.99304 -117.61914 9953 ft 280 kts 301°
2026-04-25 23:52 33.00485 -117.63758 9961 ft 280 kts 301°
2026-04-25 23:52 33.01665 -117.65603 9962 ft 280 kts 302°
2026-04-25 23:53 33.02846 -117.67448 9991 ft 280 kts 302°
2026-04-25 23:53 33.04027 -117.69294 9988 ft 280 kts 302°
2026-04-25 23:53 33.05206 -117.71138 9987 ft 279 kts 302°
2026-04-25 23:53 33.06412 -117.72959 9981 ft 282 kts 309°
2026-04-25 23:54 33.07889 -117.74530 9986 ft 286 kts 314°
2026-04-25 23:54 33.09418 -117.76051 9987 ft 286 kts 314°
2026-04-25 23:54 33.10942 -117.77581 9988 ft 286 kts 314°
2026-04-25 23:54 33.12450 -117.79122 9988 ft 285 kts 314°
2026-04-25 23:55 33.13959 -117.80665 9989 ft 286 kts 314°
2026-04-25 23:55 33.15472 -117.82204 9989 ft 285 kts 314°
2026-04-25 23:55 33.16975 -117.83731 9982 ft 279 kts 314°
2026-04-25 23:55 33.18435 -117.85212 9975 ft 275 kts 315°
2026-04-25 23:56 33.20116 -117.86345 9982 ft 284 kts 338°
2026-04-25 23:56 33.22050 -117.86893 9984 ft 287 kts 343°
2026-04-25 23:56 33.23983 -117.87348 9987 ft 287 kts 344°
2026-04-25 23:56 33.25947 -117.87815 9991 ft 287 kts 343°
2026-04-25 23:57 33.27902 -117.88306 9985 ft 287 kts 343°
2026-04-25 23:57 33.29856 -117.88800 9987 ft 287 kts 343°
2026-04-25 23:57 33.31812 -117.89286 9990 ft 287 kts 343°
2026-04-25 23:57 33.33766 -117.89768 9986 ft 286 kts 344°
2026-04-25 23:58 33.35712 -117.90250 9975 ft 286 kts 343°
2026-04-25 23:58 33.37656 -117.90741 9979 ft 285 kts 343°
2026-04-25 23:58 33.39560 -117.91366 9980 ft 284 kts 337°
2026-04-25 23:58 33.41455 -117.92053 9980 ft 284 kts 339°
2026-04-25 23:59 33.43367 -117.92725 9994 ft 286 kts 339°
2026-04-25 23:59 33.45265 -117.93410 9994 ft 286 kts 338°
2026-04-25 23:59 33.47166 -117.94108 9996 ft 286 kts 339°
2026-04-25 23:59 33.49067 -117.94802 9998 ft 285 kts 339°
2026-04-26 00:00 33.50327 -117.95259 9954 ft 288 kts 339°
2026-04-26 00:00 33.52890 -117.96189 9640 ft 285 kts 339°
2026-04-26 00:00 33.54772 -117.96873 9397 ft 281 kts 339°
2026-04-26 00:00 33.56637 -117.97552 9172 ft 280 kts 339°
2026-04-26 00:01 33.58487 -117.98226 8939 ft 274 kts 339°
2026-04-26 00:01 33.60296 -117.98885 8718 ft 269 kts 339°
2026-04-26 00:01 33.62067 -117.99530 8492 ft 263 kts 339°
2026-04-26 00:01 33.63803 -118.00164 8278 ft 258 kts 339°
2026-04-26 00:02 33.65506 -118.00786 8071 ft 254 kts 339°
2026-04-26 00:02 33.67184 -118.01398 7852 ft 250 kts 339°
2026-04-26 00:02 33.68834 -118.02001 7620 ft 246 kts 339°
2026-04-26 00:02 33.70459 -118.02594 7428 ft 242 kts 339°
2026-04-26 00:03 33.72059 -118.03179 7221 ft 239 kts 339°
2026-04-26 00:03 33.73613 -118.03748 7016 ft 235 kts 339°
2026-04-26 00:03 33.75168 -118.04317 6955 ft 235 kts 339°
2026-04-26 00:03 33.76731 -118.04890 6955 ft 234 kts 339°
2026-04-26 00:04 33.78295 -118.05463 6954 ft 235 kts 339°
2026-04-26 00:04 33.79759 -118.06258 6967 ft 230 kts 319°
2026-04-26 00:04 33.80956 -118.07516 6954 ft 225 kts 313°
2026-04-26 00:04 33.82072 -118.08841 6959 ft 227 kts 311°
2026-04-26 00:05 33.83181 -118.10186 6961 ft 226 kts 311°
2026-04-26 00:05 33.84294 -118.11538 6959 ft 230 kts 311°
2026-04-26 00:05 33.85409 -118.12896 6975 ft 227 kts 311°
2026-04-26 00:05 33.86530 -118.14262 6922 ft 230 kts 311°
2026-04-26 00:06 33.87651 -118.15630 6672 ft 230 kts 311°
2026-04-26 00:06 33.88773 -118.17000 6423 ft 229 kts 311°
2026-04-26 00:06 33.89887 -118.18364 6167 ft 228 kts 311°
2026-04-26 00:06 33.91028 -118.19694 5891 ft 230 kts 324°
2026-04-26 00:07 33.92572 -118.20171 5641 ft 237 kts
2026-04-26 00:07 33.94165 -118.19648 5391 ft 238 kts 19°
2026-04-26 00:07 33.95705 -118.18912 5131 ft 238 kts 21°
2026-04-26 00:07 33.97235 -118.18153 4881 ft 238 kts 21°
2026-04-26 00:08 33.98765 -118.17405 4629 ft 236 kts 21°
2026-04-26 00:08 34.00289 -118.16664 4373 ft 236 kts 21°
2026-04-26 00:08 34.01649 -118.15616 4104 ft 234 kts 50°
2026-04-26 00:08 34.02563 -118.14026 3849 ft 234 kts 60°
2026-04-26 00:09 34.03343 -118.12317 3572 ft 232 kts 73°
2026-04-26 00:09 34.03303 -118.10439 3380 ft 226 kts 117°
2026-04-26 00:09 34.02257 -118.09129 3350 ft 217 kts 160°
2026-04-26 00:09 34.00814 -118.09043 3341 ft 210 kts 202°
2026-04-26 00:10 33.99660 -118.10086 3309 ft 211 kts 227°
2026-04-26 00:10 33.98690 -118.11446 3116 ft 216 kts 232°
2026-04-26 00:10 33.98001 -118.13030 2930 ft 213 kts 255°
2026-04-26 00:10 33.97760 -118.14784 2739 ft 211 kts 262°
2026-04-26 00:11 33.97611 -118.16530 2573 ft 210 kts 263°
2026-04-26 00:11 33.97448 -118.18259 2583 ft 205 kts 261°
2026-04-26 00:11 33.97273 -118.19988 2595 ft 212 kts 261°
2026-04-26 00:11 33.97096 -118.21724 2593 ft 209 kts 262°
2026-04-26 00:12 33.96915 -118.23485 2583 ft 211 kts 262°
2026-04-26 00:12 33.96741 -118.25208 2574 ft 205 kts 261°
2026-04-26 00:12 33.96565 -118.26923 2328 ft 203 kts 262°
2026-04-26 00:12 33.96417 -118.28405 2122 ft 162 kts 262°
2026-04-26 00:13 33.96283 -118.29723 1909 ft 155 kts 260°
2026-04-26 00:13 33.96154 -118.30962 1707 ft 155 kts 260°
2026-04-26 00:13 33.96028 -118.32191 1481 ft 140 kts 261°
2026-04-26 00:13 33.95916 -118.33302 1291 ft 131 kts 261°
2026-04-26 00:14 33.95807 -118.34351 1115 ft 126 kts 263°
2026-04-26 00:14 33.95700 -118.35408 928 ft 120 kts 260°
2026-04-26 00:14 33.95592 -118.36444 771 ft 123 kts 261°
2026-04-26 00:14 33.95478 -118.37526 586 ft 130 kts 262°
2026-04-26 00:15 33.95376 -118.38583 393 ft 128 kts 263°
2026-04-26 00:15 33.95263 -118.39674 238 ft 125 kts 263°
2026-04-26 00:15 33.95167 -118.40642 132 ft 102 kts 262°
2026-04-26 00:15 33.95099 -118.41292 127 ft 58 kts 263°
2026-04-26 00:16 33.95055 -118.41673 125 ft 37 kts 256°
2026-04-26 00:16 33.94962 -118.41889 127 ft 14 kts 234°
2026-04-26 00:16 33.94936 -118.41933 127 ft 3 kts 232°
2026-04-26 00:16 33.94929 -118.41942 124 ft 0 kts 232°
2026-04-26 00:17 33.94915 -118.41965 123 ft 10 kts 232°
2026-04-26 00:17 33.94848 -118.42071 127 ft 21 kts 233°
2026-04-26 00:18 33.94757 -118.42214 124 ft 16 kts 232°
2026-04-26 00:18 33.94695 -118.42228 123 ft 7 kts 136°
2026-04-26 00:18 33.94692 -118.42148 123 ft 16 kts 82°
2026-04-26 00:18 33.94708 -118.41989 127 ft 20 kts 83°
2026-04-26 00:19 33.94726 -118.41816 125 ft 21 kts 83°
2026-04-26 00:19 33.94745 -118.41635 127 ft 22 kts 83°
2026-04-26 00:19 33.94766 -118.41447 125 ft 23 kts 77°
2026-04-26 00:19 33.94797 -118.41255 125 ft 24 kts 83°
2026-04-26 00:20 33.94818 -118.41055 123 ft 24 kts 83°
2026-04-26 00:20 33.94837 -118.40867 127 ft 21 kts 83°
2026-04-26 00:20 33.94854 -118.40701 127 ft 19 kts 83°
2026-04-26 00:20 33.94869 -118.40554 127 ft 18 kts 83°
2026-04-26 00:21 33.94889 -118.40366 127 ft 27 kts 82°
2026-04-26 00:21 33.94911 -118.40144 126 ft 16 kts 83°
2026-04-26 00:21 33.94881 -118.40082 125 ft 7 kts 162°
2026-04-26 00:21 33.94837 -118.40027 125 ft 12 kts 122°
2026-04-26 00:22 33.94785 -118.40018 123 ft 3 kts 242°
2026-04-26 00:22 33.94774 -118.40046 123 ft 4 kts 244°
2026-04-26 00:22 33.94765 -118.40068 125 ft 0 kts 242°